Alderney, United Kingdom

2:56 AM GMT on November 24, 2017 (GMT +0000)
Alderney

Weather History for EGJA - November, 2012

Change the Weather History Date:

Monday, November 26, 2012

  Actual Average Record
Temperature  
Mean Temperature 48 °F -  
Max Temperature 50 °F 48 °F 57 °F (2004)
Min Temperature 46 °F 44 °F 37 °F (2010)
Degree Days  
Heating Degree Days 17    
Moisture  
Dew Point 43 °F    
Average Humidity 84    
Maximum Humidity 93    
Minimum Humidity 76    
Precipitation  
Precipitation 0.00 in - - ()
Sea Level Pressure  
Sea Level Pressure 29.48 in    
Wind  
Wind Speed 16 mph ()    
Max Wind Speed 25 mph    
Max Gust Speed 43 mph    
Visibility 6.2 miles    
Events Rain    
Averages and records for this station are not official NWS values.
T = Trace of Precipitation, MM = Missing Value Source: Averaged Metar Reports

Daily Weather History Graph

Daily Weather History Graph

Search for Another Location

Airport or City:

Trip Planner

Search our weather history database for the weather conditions in past years. The results will help you decide how hot, cold, wet, or windy it might be!

Date:

Astronomy

Nov. 26, 2012 Rise Set
Actual Time 7:37 AM GMT 4:14 PM GMT
Civil Twilight 7:01 AM GMT 4:50 PM GMT
Nautical Twilight 6:21 AM GMT 5:30 PM GMT
Astronomical Twilight 5:42 AM GMT 6:09 PM GMT
Moon 3:03 PM GMT (11/26) 5:27 AM GMT (11/26)
Length of Visible Light 9h 49m
Length of Day
8h 36m
Waxing Gibbous, 96% of the Moon is Illuminated
Nov 26
Waxing Gibbous
Nov 28
Full
Dec 6
Last Quarter
Dec 13
New
Dec 20
First Quarter

Hourly Weather History & Observations

Time (GMT) Temp. Windchill Dew Point Humidity Pressure Visibility Wind Dir Wind Speed Gust Speed Precip Events Conditions
6:50 AM 48.2 °F - 44.6 °F 87% 29.42 in 6.2 mi SSW 19.6 mph - N/A Rain Light Rain Showers
7:50 AM 50.0 °F - 42.8 °F 76% 29.42 in 6.2 mi SW 25.3 mph - N/A   Mostly Cloudy
8:20 AM 48.2 °F - 42.8 °F 82% 29.42 in 6.2 mi SW 23.0 mph 42.6 mph N/A Rain Light Rain Showers
8:50 AM 48.2 °F - 42.8 °F 82% 29.42 in 6.2 mi SW 21.9 mph 34.5 mph N/A   Mostly Cloudy
9:20 AM 48.2 °F - 42.8 °F 82% 29.42 in 6.2 mi WSW 20.7 mph 34.5 mph N/A   Mostly Cloudy
9:50 AM 48.2 °F - 44.6 °F 87% 29.44 in 6.2 mi WSW 18.4 mph 29.9 mph N/A   Scattered Clouds
10:20 AM 50.0 °F - 42.8 °F 76% 29.44 in 6.2 mi West 23.0 mph 34.5 mph N/A   Scattered Clouds
10:50 AM 48.2 °F - 42.8 °F 82% 29.44 in 6.2 mi West 18.4 mph - N/A   Mostly Cloudy
11:20 AM 50.0 °F - 44.6 °F 82% 29.47 in 6.2 mi WNW 15.0 mph - N/A   Mostly Cloudy
11:50 AM 48.2 °F - 42.8 °F 82% 29.47 in 6.2 mi West 15.0 mph - N/A   Mostly Cloudy
12:20 PM 48.2 °F - 44.6 °F 87% 29.47 in 6.2 mi West 17.3 mph - N/A Rain Light Rain Showers
12:50 PM 46.4 °F 41.1 °F 44.6 °F 93% 29.47 in 6.2 mi West 11.5 mph - N/A   Mostly Cloudy
1:20 PM 48.2 °F - 44.6 °F 87% 29.47 in 6.2 mi WNW 17.3 mph - N/A   Mostly Cloudy
1:50 PM 46.4 °F 39.8 °F 42.8 °F 87% 29.47 in 6.2 mi NW 16.1 mph 28.8 mph N/A Rain Light Rain Showers
2:20 PM 48.2 °F - 44.6 °F 87% 29.50 in 6.2 mi WNW 18.4 mph - N/A   Scattered Clouds
2:50 PM 48.2 °F - 42.8 °F 82% 29.50 in 6.2 mi WNW 15.0 mph - N/A   Mostly Cloudy
3:20 PM 46.4 °F 40.4 °F 42.8 °F 87% 29.50 in 6.2 mi NW 13.8 mph - N/A   Mostly Cloudy
3:50 PM 46.4 °F 41.1 °F 42.8 °F 87% 29.53 in 6.2 mi NW 11.5 mph - N/A   Scattered Clouds
4:20 PM 48.2 °F - 42.8 °F 82% 29.53 in 6.2 mi NW 8.1 mph - N/A   Scattered Clouds
4:50 PM 46.4 °F 41.5 °F 41.0 °F 81% 29.53 in 6.2 mi NW 10.4 mph - N/A   Scattered Clouds
5:20 PM 46.4 °F 41.1 °F 41.0 °F 81% 29.53 in 6.2 mi NNW 11.5 mph - N/A   Scattered Clouds
5:50 PM 48.2 °F - 41.0 °F 76% 29.53 in 6.2 mi NNW 13.8 mph - N/A Rain Light Rain Showers
6:20 PM 46.4 °F 39.2 °F 42.8 °F 87% 29.56 in 6.2 mi NNW 18.4 mph - N/A Rain Light Rain Showers